Year,Month,Day,Hour,Minute,Value (Times are PST for temperature in C)
2018,07,20,00,00,14.90
2018,07,20,00,01,14.90
2018,07,20,00,02,14.90
2018,07,20,00,03,14.90
2018,07,20,00,04,14.80
2018,07,20,00,05,14.80
2018,07,20,00,07,14.80
2018,07,20,00,08,14.80
2018,07,20,00,09,14.90
2018,07,20,00,10,14.80
2018,07,20,00,11,14.80
2018,07,20,00,12,14.80
2018,07,20,00,13,14.80
2018,07,20,00,14,14.80
2018,07,20,00,15,14.80
2018,07,20,00,16,14.80
2018,07,20,00,17,14.80
2018,07,20,00,19,14.80
2018,07,20,00,20,14.80
2018,07,20,00,21,14.80
2018,07,20,00,22,14.80
2018,07,20,00,23,14.80
2018,07,20,00,24,14.80
2018,07,20,00,25,14.80
2018,07,20,00,26,14.80
2018,07,20,00,27,14.80
2018,07,20,00,28,14.80
2018,07,20,00,30,14.80
2018,07,20,00,31,14.80
2018,07,20,00,32,14.80
2018,07,20,00,33,14.80
2018,07,20,00,34,14.80
2018,07,20,00,35,14.80
2018,07,20,00,36,14.80
2018,07,20,00,37,14.80
2018,07,20,00,39,14.80
2018,07,20,00,40,14.80
2018,07,20,00,41,14.80
2018,07,20,00,42,14.80
2018,07,20,00,43,14.80
2018,07,20,00,44,14.80
2018,07,20,00,45,14.80
2018,07,20,00,46,14.80
2018,07,20,00,47,14.80
2018,07,20,00,48,14.80
2018,07,20,00,49,14.80
2018,07,20,00,50,14.80
2018,07,20,00,51,14.80
2018,07,20,00,53,14.80
2018,07,20,00,54,14.80
2018,07,20,00,55,14.80
2018,07,20,00,56,14.80
2018,07,20,00,57,14.80
2018,07,20,00,58,14.70
2018,07,20,00,59,14.70
2018,07,20,01,00,14.80
2018,07,20,01,01,14.70
2018,07,20,01,02,14.70
2018,07,20,01,03,14.70
2018,07,20,01,04,14.70
2018,07,20,01,05,14.70
2018,07,20,01,06,14.70
2018,07,20,01,07,14.70
2018,07,20,01,08,14.70
2018,07,20,01,09,14.70
2018,07,20,01,10,14.70
2018,07,20,01,12,14.70
2018,07,20,01,13,14.70
2018,07,20,01,14,14.60
2018,07,20,01,15,14.60
2018,07,20,01,16,14.60
2018,07,20,01,17,14.60
2018,07,20,01,18,14.60
2018,07,20,01,19,14.60
2018,07,20,01,20,14.60
2018,07,20,01,21,14.60
2018,07,20,01,22,14.60
2018,07,20,01,24,14.60
2018,07,20,01,25,14.70
2018,07,20,01,27,14.70
2018,07,20,01,28,14.70
2018,07,20,01,29,14.70
2018,07,20,01,30,14.80
2018,07,20,01,31,14.80
2018,07,20,01,32,14.80
2018,07,20,01,33,14.80
2018,07,20,01,34,14.90
2018,07,20,01,35,14.90
2018,07,20,01,37,14.90
2018,07,20,01,38,14.90
2018,07,20,01,39,14.90
2018,07,20,01,40,14.90
2018,07,20,01,41,14.90
2018,07,20,01,42,15.00
2018,07,20,01,43,15.00
2018,07,20,01,44,15.00
2018,07,20,01,45,15.00
2018,07,20,01,46,15.10
2018,07,20,01,47,15.10
2018,07,20,01,48,15.10
2018,07,20,01,49,15.10
2018,07,20,01,50,15.10
2018,07,20,01,52,15.10
2018,07,20,01,53,15.10
2018,07,20,01,54,15.10
2018,07,20,01,56,15.20
2018,07,20,01,57,15.20
2018,07,20,01,59,15.20
2018,07,20,02,00,15.20
2018,07,20,02,01,15.10
2018,07,20,02,03,15.10
2018,07,20,02,04,15.10
2018,07,20,02,05,15.10
2018,07,20,02,07,15.10
2018,07,20,02,08,15.10
2018,07,20,02,09,15.10
2018,07,20,02,10,15.10
2018,07,20,02,11,15.10
2018,07,20,02,12,15.00
2018,07,20,02,13,15.10
2018,07,20,02,14,15.00
2018,07,20,02,15,15.00
2018,07,20,02,16,15.00
2018,07,20,02,17,15.00
2018,07,20,02,18,14.90
2018,07,20,02,19,14.90
2018,07,20,02,20,14.90
2018,07,20,02,22,14.90
2018,07,20,02,23,14.90
2018,07,20,02,24,14.90
2018,07,20,02,25,14.80
2018,07,20,02,26,14.80
2018,07,20,02,27,14.80
2018,07,20,02,28,14.80
2018,07,20,02,29,14.80
2018,07,20,02,30,14.80
2018,07,20,02,31,14.80
2018,07,20,02,32,14.70
2018,07,20,02,33,14.70
2018,07,20,02,34,14.70
2018,07,20,02,36,14.70
2018,07,20,02,37,14.70
2018,07,20,02,38,14.70
2018,07,20,02,39,14.60
2018,07,20,02,40,14.60
2018,07,20,02,41,14.60
2018,07,20,02,42,14.60
2018,07,20,02,43,14.60
2018,07,20,02,44,14.60
2018,07,20,02,45,14.60
2018,07,20,02,46,14.50
2018,07,20,02,47,14.50
2018,07,20,02,48,14.50
2018,07,20,02,49,14.50
2018,07,20,02,51,14.40
2018,07,20,02,52,14.40
2018,07,20,02,53,14.40
2018,07,20,02,54,14.40
2018,07,20,02,55,14.40
2018,07,20,02,58,14.30
2018,07,20,02,59,14.30
2018,07,20,03,00,14.30
2018,07,20,03,01,14.30
2018,07,20,03,02,14.30
2018,07,20,03,04,14.20
2018,07,20,03,05,14.20
2018,07,20,03,06,14.20
2018,07,20,03,07,14.20
2018,07,20,03,08,14.20
2018,07,20,03,09,14.10
2018,07,20,03,10,14.10
2018,07,20,03,12,14.10
2018,07,20,03,13,14.10
2018,07,20,03,14,14.10
2018,07,20,03,16,14.10
2018,07,20,03,17,14.00
2018,07,20,03,18,14.00
2018,07,20,03,19,14.00
2018,07,20,03,20,14.00
2018,07,20,03,21,13.90
2018,07,20,03,22,13.90
2018,07,20,03,23,13.90
2018,07,20,03,24,13.90
2018,07,20,03,25,13.90
2018,07,20,03,26,13.90
2018,07,20,03,27,13.90
2018,07,20,03,28,13.90
2018,07,20,03,30,13.90
2018,07,20,03,31,13.90
2018,07,20,03,32,13.90
2018,07,20,03,33,13.80
2018,07,20,03,34,13.80
2018,07,20,03,35,13.80
2018,07,20,03,36,13.80
2018,07,20,03,38,13.80
2018,07,20,03,39,13.80
2018,07,20,03,40,13.80
2018,07,20,03,41,13.80
2018,07,20,03,43,13.70
2018,07,20,03,44,13.70
2018,07,20,03,45,13.70
2018,07,20,03,47,13.70
2018,07,20,03,48,13.70
2018,07,20,03,49,13.70
2018,07,20,03,50,13.70
2018,07,20,03,51,13.70
2018,07,20,03,52,13.60
2018,07,20,03,53,13.60
2018,07,20,03,54,13.60
2018,07,20,03,55,13.60
2018,07,20,03,56,13.60
2018,07,20,03,57,13.50
2018,07,20,03,58,13.50
2018,07,20,03,59,13.40
2018,07,20,04,00,13.40
2018,07,20,04,01,13.40
2018,07,20,04,02,13.40
2018,07,20,04,03,13.40
2018,07,20,04,04,13.40
2018,07,20,04,05,13.40
2018,07,20,04,06,13.40
2018,07,20,04,07,13.40
2018,07,20,04,08,13.40
2018,07,20,04,09,13.40
2018,07,20,04,10,13.40
2018,07,20,04,12,13.40
2018,07,20,04,13,13.40
2018,07,20,04,14,13.40
2018,07,20,04,15,13.40
2018,07,20,04,16,13.40
2018,07,20,04,17,13.40
2018,07,20,04,18,13.40
2018,07,20,04,19,13.40
2018,07,20,04,20,13.40
2018,07,20,04,21,13.40
2018,07,20,04,23,13.40
2018,07,20,04,24,13.40
2018,07,20,04,25,13.40
2018,07,20,04,26,13.30
2018,07,20,04,27,13.30
2018,07,20,04,28,13.30
2018,07,20,04,29,13.30
2018,07,20,04,30,13.30
2018,07,20,04,31,13.30
2018,07,20,04,32,13.30
2018,07,20,04,33,13.30
2018,07,20,04,34,13.30
2018,07,20,04,35,13.20
2018,07,20,04,36,13.20
2018,07,20,04,38,13.20
2018,07,20,04,39,13.20
2018,07,20,04,40,13.20
2018,07,20,04,41,13.20
2018,07,20,04,42,13.20
2018,07,20,04,43,13.20
2018,07,20,04,44,13.20
2018,07,20,04,45,13.20
2018,07,20,04,46,13.20
2018,07,20,04,47,13.20
2018,07,20,04,48,13.20
2018,07,20,04,50,13.20
2018,07,20,04,51,13.20
2018,07,20,04,52,13.20
2018,07,20,04,53,13.20
2018,07,20,04,54,13.20
2018,07,20,04,55,13.20
2018,07,20,04,56,13.20
2018,07,20,04,57,13.30
2018,07,20,04,58,13.30
2018,07,20,05,00,13.30
2018,07,20,05,01,13.30
2018,07,20,05,02,13.30
2018,07,20,05,03,13.30
2018,07,20,05,04,13.30
2018,07,20,05,06,13.30
2018,07,20,05,08,13.30
2018,07,20,05,10,13.30
2018,07,20,05,11,13.40
2018,07,20,05,12,13.30
2018,07,20,05,13,13.40
2018,07,20,05,14,13.30
2018,07,20,05,15,13.30
2018,07,20,05,16,13.30
2018,07,20,05,17,13.30
2018,07,20,05,18,13.30
2018,07,20,05,19,13.30
2018,07,20,05,20,13.30
2018,07,20,05,22,13.30
2018,07,20,05,23,13.30
2018,07,20,05,24,13.30
2018,07,20,05,25,13.30
2018,07,20,05,26,13.30
2018,07,20,05,27,13.30
2018,07,20,05,28,13.30
2018,07,20,05,29,13.30
2018,07,20,05,30,13.30
2018,07,20,05,31,13.30
2018,07,20,05,32,13.30
2018,07,20,05,33,13.30
2018,07,20,05,34,13.30
2018,07,20,05,35,13.30
2018,07,20,05,36,13.30
2018,07,20,05,37,13.20
2018,07,20,05,38,13.30
2018,07,20,05,39,13.20
2018,07,20,05,40,13.20
2018,07,20,05,41,13.20
2018,07,20,05,42,13.20
2018,07,20,05,43,13.20
2018,07,20,05,45,13.20
2018,07,20,05,46,13.20
2018,07,20,05,47,13.20
2018,07,20,05,48,13.20
2018,07,20,05,49,13.20
2018,07,20,05,50,13.10
2018,07,20,05,51,13.10
2018,07,20,05,52,13.10
2018,07,20,05,53,13.10
2018,07,20,05,54,13.10
2018,07,20,05,55,13.10
2018,07,20,05,57,13.00
2018,07,20,05,58,13.00
2018,07,20,06,00,12.90
2018,07,20,06,01,12.90
2018,07,20,06,03,12.90
2018,07,20,06,04,12.90
2018,07,20,06,06,12.80
2018,07,20,06,07,12.80
2018,07,20,06,08,12.80
2018,07,20,06,09,12.80
2018,07,20,06,10,12.80
2018,07,20,06,12,12.70
2018,07,20,06,13,12.70
2018,07,20,06,15,12.70
2018,07,20,06,16,12.70
2018,07,20,06,17,12.70
2018,07,20,06,18,12.70
2018,07,20,06,19,12.70
2018,07,20,06,21,12.70
2018,07,20,06,22,12.70
2018,07,20,06,23,12.70
2018,07,20,06,24,12.70
2018,07,20,06,25,12.70
2018,07,20,06,26,12.70
2018,07,20,06,27,12.70
2018,07,20,06,28,12.70
2018,07,20,06,30,12.70
2018,07,20,06,31,12.70
2018,07,20,06,32,12.70
2018,07,20,06,33,12.70
2018,07,20,06,35,12.70
2018,07,20,06,36,12.70
2018,07,20,06,37,12.70
2018,07,20,06,38,12.70
2018,07,20,06,39,12.70
2018,07,20,06,40,12.70
2018,07,20,06,41,12.70
2018,07,20,06,42,12.70
2018,07,20,06,43,12.70
2018,07,20,06,44,12.80
2018,07,20,06,45,12.80
2018,07,20,06,46,12.80
2018,07,20,06,47,12.80
2018,07,20,06,48,12.80
2018,07,20,06,49,12.80
2018,07,20,06,50,12.80
2018,07,20,06,51,12.80
2018,07,20,06,52,12.80
2018,07,20,06,53,12.90
2018,07,20,06,54,12.90
2018,07,20,06,55,12.90
2018,07,20,06,56,12.90
2018,07,20,06,58,12.90
2018,07,20,06,59,13.00
2018,07,20,07,00,13.00
2018,07,20,07,01,13.00
2018,07,20,07,02,13.00
2018,07,20,07,03,13.10
2018,07,20,07,04,13.10
2018,07,20,07,05,13.10
2018,07,20,07,06,13.10
2018,07,20,07,07,13.10
2018,07,20,07,08,13.10
2018,07,20,07,09,13.10
2018,07,20,07,10,13.10
2018,07,20,07,11,13.10
2018,07,20,07,12,13.10
2018,07,20,07,13,13.10
2018,07,20,07,15,13.10
2018,07,20,07,16,13.10
2018,07,20,07,17,13.10
2018,07,20,07,19,13.20
2018,07,20,07,20,13.20
2018,07,20,07,21,13.20
2018,07,20,07,23,13.20
2018,07,20,07,24,13.30
2018,07,20,07,25,13.30
2018,07,20,07,26,13.30
2018,07,20,07,27,13.30
2018,07,20,07,28,13.30
2018,07,20,07,29,13.30
2018,07,20,07,30,13.30
2018,07,20,07,31,13.40
2018,07,20,07,32,13.40
2018,07,20,07,33,13.40
2018,07,20,07,34,13.50
2018,07,20,07,35,13.60
2018,07,20,07,37,13.60
2018,07,20,07,38,13.70
2018,07,20,07,39,13.70
2018,07,20,07,40,13.70
2018,07,20,07,41,13.80
2018,07,20,07,42,13.80
2018,07,20,07,43,13.90
2018,07,20,07,44,13.90
2018,07,20,07,46,13.90
2018,07,20,07,48,14.10
2018,07,20,07,49,14.10
2018,07,20,07,50,14.10
2018,07,20,07,51,14.20
2018,07,20,07,53,14.30
2018,07,20,07,54,14.30
2018,07,20,07,56,14.40
2018,07,20,07,57,14.50
2018,07,20,07,59,14.60
2018,07,20,08,01,14.60
2018,07,20,08,02,14.70
2018,07,20,08,03,14.70
2018,07,20,08,04,14.70
2018,07,20,08,05,14.70
2018,07,20,08,07,14.80
2018,07,20,08,08,14.80
2018,07,20,08,09,14.80
2018,07,20,08,10,14.90
2018,07,20,08,11,14.90
2018,07,20,08,12,15.00
2018,07,20,08,14,15.10
2018,07,20,08,15,15.20
2018,07,20,08,17,15.20
2018,07,20,08,18,15.20
2018,07,20,08,20,15.20
2018,07,20,08,21,15.20
2018,07,20,08,22,15.20
2018,07,20,08,23,15.30
2018,07,20,08,24,15.30
2018,07,20,08,25,15.30
2018,07,20,08,27,15.40
2018,07,20,08,28,15.40
2018,07,20,08,29,15.40
2018,07,20,08,31,15.60
2018,07,20,08,32,15.60
2018,07,20,08,34,15.70
2018,07,20,08,35,15.80
2018,07,20,08,37,15.80
2018,07,20,08,38,15.80
2018,07,20,08,39,15.80
2018,07,20,08,40,15.80
2018,07,20,08,42,15.80
2018,07,20,08,43,15.80
2018,07,20,08,44,15.90
2018,07,20,08,46,15.90
2018,07,20,08,48,16.00
2018,07,20,08,49,16.00
2018,07,20,08,50,16.10
2018,07,20,08,51,16.10
2018,07,20,08,52,16.10
2018,07,20,08,53,16.20
2018,07,20,08,54,16.20
2018,07,20,08,55,16.20
2018,07,20,08,56,16.20
2018,07,20,08,57,16.20
2018,07,20,08,59,16.20
2018,07,20,09,01,16.30
2018,07,20,09,02,16.30
2018,07,20,09,04,16.30
2018,07,20,09,05,16.40
2018,07,20,09,07,16.40
2018,07,20,09,08,16.40
2018,07,20,09,09,16.50
2018,07,20,09,11,16.70
2018,07,20,09,12,16.70
2018,07,20,09,13,16.80
2018,07,20,09,14,16.80
2018,07,20,09,16,16.90
2018,07,20,09,18,17.10
2018,07,20,09,19,17.10
2018,07,20,09,20,17.10
2018,07,20,09,21,17.20
2018,07,20,09,23,17.20
2018,07,20,09,24,17.20
2018,07,20,09,25,17.30
2018,07,20,09,26,17.30
2018,07,20,09,27,17.40
2018,07,20,09,28,17.50
2018,07,20,09,30,17.60
2018,07,20,09,31,17.60
2018,07,20,09,33,17.60
2018,07,20,09,34,17.60
2018,07,20,09,35,17.60
2018,07,20,09,37,17.70
2018,07,20,09,38,17.70
2018,07,20,09,39,17.70
2018,07,20,09,40,17.70
2018,07,20,09,41,17.70
2018,07,20,09,42,17.70
2018,07,20,09,43,17.80
2018,07,20,09,45,17.80
2018,07,20,09,47,17.80
2018,07,20,09,48,17.80
2018,07,20,09,50,17.80
2018,07,20,09,51,17.80
2018,07,20,09,53,17.90
2018,07,20,09,54,17.90
2018,07,20,09,56,17.90
2018,07,20,09,57,17.90
2018,07,20,09,59,18.10
2018,07,20,10,00,18.20
2018,07,20,10,02,18.30
2018,07,20,10,03,18.30
2018,07,20,10,05,18.40
2018,07,20,10,06,18.40
2018,07,20,10,08,18.40
2018,07,20,10,09,18.50
2018,07,20,10,11,18.60
2018,07,20,10,12,18.70
2018,07,20,10,13,18.70
2018,07,20,10,14,18.80
2018,07,20,10,15,18.90
2018,07,20,10,17,19.00
2018,07,20,10,19,19.10
2018,07,20,10,20,19.20
2018,07,20,10,22,19.30
2018,07,20,10,23,19.40
2018,07,20,10,25,19.60
2018,07,20,10,27,19.70
2018,07,20,10,29,19.80
2018,07,20,10,30,19.90
2018,07,20,10,32,19.90
2018,07,20,10,33,19.90
2018,07,20,10,35,19.90
2018,07,20,10,36,20.00
2018,07,20,10,37,20.10
2018,07,20,10,39,20.20
2018,07,20,10,40,20.30
2018,07,20,10,42,20.50
2018,07,20,10,43,20.50
2018,07,20,10,45,20.60
2018,07,20,10,47,20.60
2018,07,20,10,48,20.60
2018,07,20,10,50,20.50
2018,07,20,10,51,20.50
2018,07,20,10,53,20.50
2018,07,20,10,54,20.50
2018,07,20,10,55,20.50
2018,07,20,10,58,20.40
2018,07,20,10,59,20.40
2018,07,20,11,00,20.30
2018,07,20,11,02,20.30
2018,07,20,11,04,20.30
2018,07,20,11,05,20.30
2018,07,20,11,06,20.40
2018,07,20,11,07,20.40
2018,07,20,11,09,20.60
2018,07,20,11,11,20.60
2018,07,20,11,12,20.70
2018,07,20,11,14,20.70
2018,07,20,11,15,20.70
2018,07,20,11,17,20.80
2018,07,20,11,19,20.90
2018,07,20,11,20,21.00
2018,07,20,11,22,21.20
2018,07,20,11,23,21.30
2018,07,20,11,25,21.40
2018,07,20,11,26,21.40
2018,07,20,11,28,21.50
2018,07,20,11,29,21.60
2018,07,20,11,31,21.50
2018,07,20,11,32,21.40
2018,07,20,11,34,21.40
2018,07,20,11,36,21.30
2018,07,20,11,37,21.20
2018,07,20,11,38,21.20
2018,07,20,11,40,21.20
2018,07,20,11,41,21.30
2018,07,20,11,42,21.40
2018,07,20,11,44,21.60
2018,07,20,11,46,21.70
2018,07,20,11,47,21.70
2018,07,20,11,49,21.70
2018,07,20,11,50,21.70
2018,07,20,11,52,21.70
2018,07,20,11,53,21.70
2018,07,20,11,55,21.80
2018,07,20,11,57,21.90
2018,07,20,11,59,21.90
2018,07,20,12,01,21.90
2018,07,20,12,02,21.90
2018,07,20,12,04,21.90
2018,07,20,12,06,21.90
2018,07,20,12,07,21.90
2018,07,20,12,08,21.90
2018,07,20,12,10,21.90
2018,07,20,12,11,22.00
2018,07,20,12,12,22.00
2018,07,20,12,14,22.00
2018,07,20,12,16,22.10
2018,07,20,12,17,22.20
2018,07,20,12,19,22.30
2018,07,20,12,20,22.30
2018,07,20,12,22,22.50
2018,07,20,12,23,22.50
2018,07,20,12,25,22.50
2018,07,20,12,26,22.40
2018,07,20,12,27,22.40
2018,07,20,12,29,22.50
2018,07,20,12,30,22.60
2018,07,20,12,32,22.60
2018,07,20,12,33,22.60
2018,07,20,12,35,22.70
2018,07,20,12,36,22.80
2018,07,20,12,38,22.80
2018,07,20,12,39,22.90
2018,07,20,12,41,23.00
2018,07,20,12,43,23.10
2018,07,20,12,44,23.10
2018,07,20,12,46,23.10
2018,07,20,12,47,23.10
2018,07,20,12,49,23.10
2018,07,20,12,50,23.10
2018,07,20,12,52,23.10
2018,07,20,12,53,23.20
2018,07,20,12,54,23.20
2018,07,20,12,56,23.20
2018,07,20,12,58,23.10
2018,07,20,12,59,23.00
2018,07,20,13,01,22.90
2018,07,20,13,02,23.00
2018,07,20,13,04,23.00
2018,07,20,13,05,23.10
2018,07,20,13,07,23.00
2018,07,20,13,08,22.90
2018,07,20,13,10,22.80
2018,07,20,13,11,22.80
2018,07,20,13,13,22.70
2018,07,20,13,14,22.70
2018,07,20,13,16,22.60
2018,07,20,13,17,22.40
2018,07,20,13,18,22.40
2018,07,20,13,20,22.50
2018,07,20,13,21,22.60
2018,07,20,13,23,22.60
2018,07,20,13,24,22.60
2018,07,20,13,26,22.60
2018,07,20,13,27,22.70
2018,07,20,13,28,22.80
2018,07,20,13,29,22.80
2018,07,20,13,30,22.90
2018,07,20,13,31,22.90
2018,07,20,13,32,23.00
2018,07,20,13,34,23.10
2018,07,20,13,35,23.20
2018,07,20,13,37,23.20
2018,07,20,13,38,23.30
2018,07,20,13,40,23.30
2018,07,20,13,41,23.40
2018,07,20,13,43,23.40
2018,07,20,13,44,23.40
2018,07,20,13,46,23.50
2018,07,20,13,47,23.60
2018,07,20,13,48,23.60
2018,07,20,13,50,23.70
2018,07,20,13,51,23.70
2018,07,20,13,53,23.60
2018,07,20,13,54,23.50
2018,07,20,13,55,23.40
2018,07,20,13,56,23.40
2018,07,20,13,58,23.40
2018,07,20,13,59,23.30
2018,07,20,14,01,23.30
2018,07,20,14,02,23.40
2018,07,20,14,05,23.50
2018,07,20,14,07,23.60
2018,07,20,14,08,23.70
2018,07,20,14,10,23.70
2018,07,20,14,11,23.70
2018,07,20,14,12,23.80
2018,07,20,14,13,23.80
2018,07,20,14,15,23.80
2018,07,20,14,16,23.90
2018,07,20,14,18,23.80
2018,07,20,14,19,23.80
2018,07,20,14,21,23.80
2018,07,20,14,22,23.90
2018,07,20,14,24,23.90
2018,07,20,14,25,24.00
2018,07,20,14,26,24.10
2018,07,20,14,27,24.20
2018,07,20,14,28,24.20
2018,07,20,14,29,24.20
2018,07,20,14,31,24.20
2018,07,20,14,32,24.20
2018,07,20,14,34,24.20
2018,07,20,14,35,24.20
2018,07,20,14,36,24.20
2018,07,20,14,38,24.20
2018,07,20,14,39,24.10
2018,07,20,14,40,24.00
2018,07,20,14,42,23.90
2018,07,20,14,43,23.80
2018,07,20,14,45,23.70
2018,07,20,14,46,23.70
2018,07,20,14,47,23.70
2018,07,20,14,49,23.80
2018,07,20,14,50,24.00
2018,07,20,14,52,24.00
2018,07,20,14,53,24.00
2018,07,20,14,55,24.00
2018,07,20,14,57,23.90
2018,07,20,14,59,23.70
2018,07,20,15,00,23.70
2018,07,20,15,01,23.60
2018,07,20,15,02,23.40
2018,07,20,15,03,23.30
2018,07,20,15,04,23.20
2018,07,20,15,05,23.20
2018,07,20,15,06,23.10
2018,07,20,15,07,23.10
2018,07,20,15,08,23.10
2018,07,20,15,09,23.10
2018,07,20,15,10,22.90
2018,07,20,15,11,22.90
2018,07,20,15,13,22.70
2018,07,20,15,14,22.70
2018,07,20,15,15,22.60
2018,07,20,15,16,22.60
2018,07,20,15,17,22.50
2018,07,20,15,18,22.40
2018,07,20,15,19,22.40
2018,07,20,15,20,22.40
2018,07,20,15,21,22.40
2018,07,20,15,23,22.40
2018,07,20,15,24,22.30
2018,07,20,15,26,22.30
2018,07,20,15,27,22.30
2018,07,20,15,28,22.30
2018,07,20,15,29,22.30
2018,07,20,15,30,22.20
2018,07,20,15,31,22.20
2018,07,20,15,33,22.20
2018,07,20,15,34,22.20
2018,07,20,15,35,22.30
2018,07,20,15,36,22.30
2018,07,20,15,37,22.30
2018,07,20,15,39,22.40
2018,07,20,15,40,22.40
2018,07,20,15,42,22.40
2018,07,20,15,43,22.40
2018,07,20,15,44,22.40
2018,07,20,15,45,22.40
2018,07,20,15,46,22.30
2018,07,20,15,47,22.30
2018,07,20,15,48,22.20
2018,07,20,15,49,22.10
2018,07,20,15,50,22.00
2018,07,20,15,51,21.90
2018,07,20,15,52,21.90
2018,07,20,15,53,21.80
2018,07,20,15,55,21.80
2018,07,20,15,56,21.70
2018,07,20,15,57,21.70
2018,07,20,15,59,21.60
2018,07,20,16,01,21.60
2018,07,20,16,02,21.60
2018,07,20,16,03,21.60
2018,07,20,16,04,21.60
2018,07,20,16,05,21.60
2018,07,20,16,06,21.50
2018,07,20,16,07,21.40
2018,07,20,16,08,21.40
2018,07,20,16,09,21.30
2018,07,20,16,10,21.30
2018,07,20,16,11,21.20
2018,07,20,16,13,21.10
2018,07,20,16,14,21.00
2018,07,20,16,16,20.90
2018,07,20,16,17,20.90
2018,07,20,16,19,20.80
2018,07,20,16,20,20.70
2018,07,20,16,21,20.70
2018,07,20,16,22,20.70
2018,07,20,16,23,20.70
2018,07,20,16,25,20.60
2018,07,20,16,26,20.60
2018,07,20,16,27,20.50
2018,07,20,16,28,20.40
2018,07,20,16,29,20.30
2018,07,20,16,30,20.20
2018,07,20,16,31,20.10
2018,07,20,16,32,19.90
2018,07,20,16,33,19.80
2018,07,20,16,34,19.70
2018,07,20,16,35,19.60
2018,07,20,16,36,19.60
2018,07,20,16,37,19.40
2018,07,20,16,39,19.30
2018,07,20,16,41,19.30
2018,07,20,16,42,19.30
2018,07,20,16,43,19.30
2018,07,20,16,44,19.30
2018,07,20,16,45,19.30
2018,07,20,16,46,19.30
2018,07,20,16,47,19.20
2018,07,20,16,48,19.20
2018,07,20,16,49,19.20
2018,07,20,16,50,19.20
2018,07,20,16,51,19.30
2018,07,20,16,52,19.30
2018,07,20,16,53,19.30
2018,07,20,16,54,19.30
2018,07,20,16,55,19.30
2018,07,20,16,56,19.30
2018,07,20,16,57,19.30
2018,07,20,16,59,19.40
2018,07,20,17,00,19.40
2018,07,20,17,02,19.60
2018,07,20,17,03,19.60
2018,07,20,17,04,19.70
2018,07,20,17,06,19.70
2018,07,20,17,07,19.80
2018,07,20,17,08,19.80
2018,07,20,17,09,19.80
2018,07,20,17,10,19.80
2018,07,20,17,11,19.90
2018,07,20,17,12,19.90
2018,07,20,17,14,20.10
2018,07,20,17,15,20.10
2018,07,20,17,16,20.20
2018,07,20,17,17,20.20
2018,07,20,17,18,20.20
2018,07,20,17,19,20.20
2018,07,20,17,20,20.20
2018,07,20,17,21,20.10
2018,07,20,17,22,20.10
2018,07,20,17,23,20.10
2018,07,20,17,24,20.10
2018,07,20,17,25,20.20
2018,07,20,17,26,20.20
2018,07,20,17,27,20.20
2018,07,20,17,28,20.30
2018,07,20,17,30,20.40
2018,07,20,17,31,20.50
2018,07,20,17,33,20.60
2018,07,20,17,34,20.60
2018,07,20,17,36,20.70
2018,07,20,17,37,20.70
2018,07,20,17,38,20.70
2018,07,20,17,39,20.80
2018,07,20,17,41,20.80
2018,07,20,17,42,20.90
2018,07,20,17,44,21.10
2018,07,20,17,45,21.10
2018,07,20,17,46,21.20
2018,07,20,17,47,21.20
2018,07,20,17,48,21.30
2018,07,20,17,49,21.30
2018,07,20,17,50,21.30
2018,07,20,17,51,21.30
2018,07,20,17,52,21.40
2018,07,20,17,53,21.40
2018,07,20,17,54,21.50
2018,07,20,17,55,21.60
2018,07,20,17,56,21.60
2018,07,20,17,57,21.60
2018,07,20,17,58,21.60
2018,07,20,17,59,21.50
2018,07,20,18,00,21.50
2018,07,20,18,01,21.40
2018,07,20,18,02,21.40
2018,07,20,18,04,21.40
2018,07,20,18,05,21.40
2018,07,20,18,06,21.40
2018,07,20,18,07,21.50
2018,07,20,18,08,21.50
2018,07,20,18,09,21.60
2018,07,20,18,10,21.60
2018,07,20,18,11,21.60
2018,07,20,18,12,21.70
2018,07,20,18,13,21.70
2018,07,20,18,15,21.70
2018,07,20,18,16,21.80
2018,07,20,18,17,21.80
2018,07,20,18,18,21.80
2018,07,20,18,19,21.80
2018,07,20,18,20,21.80
2018,07,20,18,21,21.80
2018,07,20,18,22,21.80
2018,07,20,18,23,21.70
2018,07,20,18,24,21.70
2018,07,20,18,25,21.70
2018,07,20,18,26,21.60
2018,07,20,18,27,21.60
2018,07,20,18,28,21.50
2018,07,20,18,29,21.50
2018,07,20,18,30,21.40
2018,07,20,18,32,21.40
2018,07,20,18,33,21.30
2018,07,20,18,35,21.30
2018,07,20,18,36,21.30
2018,07,20,18,37,21.30
2018,07,20,18,38,21.30
2018,07,20,18,39,21.20
2018,07,20,18,40,21.20
2018,07,20,18,41,21.20
2018,07,20,18,42,21.20
2018,07,20,18,43,21.20
2018,07,20,18,44,21.10
2018,07,20,18,45,21.10
2018,07,20,18,46,21.10
2018,07,20,18,47,21.10
2018,07,20,18,48,21.10
2018,07,20,18,49,21.10
2018,07,20,18,51,21.00
2018,07,20,18,52,20.90
2018,07,20,18,53,20.90
2018,07,20,18,54,20.90
2018,07,20,18,55,20.90
2018,07,20,18,56,20.80
2018,07,20,18,57,20.80
2018,07,20,18,58,20.80
2018,07,20,18,59,20.80
2018,07,20,19,00,20.80
2018,07,20,19,01,20.80
2018,07,20,19,03,20.80
2018,07,20,19,04,20.80
2018,07,20,19,05,20.80
2018,07,20,19,07,20.80
2018,07,20,19,09,20.80
2018,07,20,19,10,20.80
2018,07,20,19,11,20.80
2018,07,20,19,12,20.90
2018,07,20,19,13,20.90
2018,07,20,19,14,20.90
2018,07,20,19,16,20.90
2018,07,20,19,17,20.90
2018,07,20,19,19,20.90
2018,07,20,19,20,20.90
2018,07,20,19,21,20.90
2018,07,20,19,22,20.90
2018,07,20,19,23,20.90
2018,07,20,19,24,20.90
2018,07,20,19,26,20.90
2018,07,20,19,27,20.90
2018,07,20,19,28,20.90
2018,07,20,19,29,21.00
2018,07,20,19,30,20.90
2018,07,20,19,31,21.00
2018,07,20,19,32,20.90
2018,07,20,19,33,20.90
2018,07,20,19,34,20.90
2018,07,20,19,35,20.90
2018,07,20,19,37,20.90
2018,07,20,19,38,20.90
2018,07,20,19,39,20.90
2018,07,20,19,40,20.90
2018,07,20,19,43,20.90
2018,07,20,19,44,20.90
2018,07,20,19,45,20.80
2018,07,20,19,46,20.80
2018,07,20,19,47,20.80
2018,07,20,19,48,20.80
2018,07,20,19,49,20.80
2018,07,20,19,51,20.70
2018,07,20,19,52,20.70
2018,07,20,19,53,20.70
2018,07,20,19,54,20.70
2018,07,20,19,55,20.70
2018,07,20,19,56,20.60
2018,07,20,19,57,20.60
2018,07,20,19,58,20.60
2018,07,20,19,59,20.60
2018,07,20,20,00,20.60
2018,07,20,20,01,20.60
2018,07,20,20,02,20.50
2018,07,20,20,03,20.50
2018,07,20,20,05,20.40
2018,07,20,20,06,20.40
2018,07,20,20,07,20.40
2018,07,20,20,08,20.30
2018,07,20,20,09,20.30
2018,07,20,20,10,20.30
2018,07,20,20,11,20.30
2018,07,20,20,12,20.30
2018,07,20,20,13,20.30
2018,07,20,20,14,20.20
2018,07,20,20,15,20.20
2018,07,20,20,17,20.20
2018,07,20,20,18,20.10
2018,07,20,20,20,20.10
2018,07,20,20,21,20.10
2018,07,20,20,22,20.00
2018,07,20,20,23,20.00
2018,07,20,20,24,20.00
2018,07,20,20,25,20.00
2018,07,20,20,26,19.90
2018,07,20,20,27,19.90
2018,07,20,20,28,19.90
2018,07,20,20,30,19.90
2018,07,20,20,31,19.90
2018,07,20,20,32,19.90
2018,07,20,20,33,19.80
2018,07,20,20,34,19.80
2018,07,20,20,35,19.80
2018,07,20,20,36,19.80
2018,07,20,20,37,19.80
2018,07,20,20,38,19.80
2018,07,20,20,39,19.80
2018,07,20,20,40,19.80
2018,07,20,20,41,19.70
2018,07,20,20,42,19.70
2018,07,20,20,43,19.70
2018,07,20,20,44,19.70
2018,07,20,20,46,19.60
2018,07,20,20,47,19.60
2018,07,20,20,48,19.60
2018,07,20,20,50,19.60
2018,07,20,20,51,19.50
2018,07,20,20,52,19.50
2018,07,20,20,53,19.40
2018,07,20,20,54,19.40
2018,07,20,20,55,19.40
2018,07,20,20,56,19.40
2018,07,20,20,57,19.40
2018,07,20,20,58,19.30
2018,07,20,21,00,19.30
2018,07,20,21,01,19.30
2018,07,20,21,03,19.30
2018,07,20,21,04,19.30
2018,07,20,21,05,19.20
2018,07,20,21,06,19.20
2018,07,20,21,08,19.20